Location: Unspecified
(0.0000°N, 0.0000°E)
Time: 23:46:58
(UTC+00:00)

Tiangong - Pass Details

Date: 27 September 2023
Orbit: 373 x 383 km, 41.5° (Epoch: 04 December)

Event Time Altitude Azimuth Distance (km) Brightness Sun altitude
Exits shadow 04:40:53 60° 299° (WNW) 432 -2.2 -17.6°
Maximum altitude 04:41:22 82° 225° (SW) 381 -2.3 -17.5°
Drops below altitude 10° 04:44:28 10° 136° (SE) 1,382 1.3 -16.7°
Sets 04:46:33 0° 135° (SE) 2,240 2.5 -16.2°
